Ephrata, WA

10:40 PM PST on December 03, 2016 (GMT -0800)
Ephrata Municipal

Weather History for KEPH - March, 2013

Change the Weather History Date:

Tuesday, March 19, 2013

  Actual Average Record
Temperature  
Mean Temperature 38 °F 44 °F  
Max Temperature 53 °F 55 °F 68 °F (1999)
Min Temperature 23 °F 33 °F 15 °F (1965)
Degree Days  
Heating Degree Days 27 21  
Month to date heating degree days 420 453  
Since 1 July heating degree days 4653 5026  
Cooling Degree Days 0 0  
Month to date cooling degree days 0 0  
Year to date cooling degree days 0 0  
Moisture  
Dew Point 24 °F    
Average Humidity 56    
Maximum Humidity 85    
Minimum Humidity 26    
Precipitation  
Precipitation 0.03 in 0.02 in 0.27 in (1961)
Month to date precipitation 0.50 0.45  
Year to date precipitation 0.85 2.10  
Sea Level Pressure  
Sea Level Pressure 30.10 in    
Wind  
Wind Speed 7 mph (North)    
Max Wind Speed 18 mph    
Max Gust Speed 24 mph    
Visibility 10 miles    
Events Rain    
T = Trace of Precipitation, MM = Missing Value Source: NWS Daily Summary

Daily Weather History Graph

Daily Weather History Graph

Search for Another Location

Airport or City:

Trip Planner

Search our weather history database for the weather conditions in past years. The results will help you decide how hot, cold, wet, or windy it might be!

Date:

Astronomy

Mar. 19, 2013 Rise Set
Actual Time 7:02 AM PDT 7:09 PM PDT
Civil Twilight 6:31 AM PDT 7:40 PM PDT
Nautical Twilight 5:55 AM PDT 8:16 PM PDT
Astronomical Twilight 5:19 AM PDT 8:53 PM PDT
Moon 11:34 AM PDT (3/19) 2:22 AM PDT (3/19)
Length of Visible Light 13h 08m
Length of Day
12h 07m
Waxing Crescent, 51% of the Moon is Illuminated
Mar 19
Waxing Crescent
Mar 27
Full
Apr 2
Last Quarter
Apr 10
New
Apr 18
First Quarter

Hourly Weather History & Observations

Time (PDT) Temp. Windchill Dew Point Humidity Pressure Visibility Wind Dir Wind Speed Gust Speed Precip Events Conditions
12:53 AM 37.9 °F 32.1 °F 21.0 °F 51% 30.21 in 10.0 mi North 8.1 mph - N/A   Clear
1:53 AM 33.1 °F 27.7 °F 21.0 °F 61% 30.21 in 10.0 mi North 5.8 mph - N/A   Clear
2:53 AM 33.1 °F - 19.9 °F 59% 30.22 in 10.0 mi Calm Calm - N/A   Clear
3:53 AM 27.0 °F 23.0 °F 19.0 °F 72% 30.22 in 10.0 mi SE 3.5 mph - N/A   Clear
4:53 AM 28.0 °F - 19.0 °F 69% 30.23 in 10.0 mi Calm Calm - N/A   Clear
5:53 AM 24.1 °F 18.2 °F 17.1 °F 75% 30.25 in 10.0 mi ENE 4.6 mph - N/A   Clear
6:53 AM 25.0 °F 18.1 °F 18.0 °F 75% 30.26 in 10.0 mi NNE 5.8 mph - N/A   Clear
7:53 AM 30.0 °F 23.2 °F 19.9 °F 66% 30.26 in 10.0 mi North 6.9 mph - N/A   Clear
8:53 AM 32.0 °F 23.6 °F 21.9 °F 66% 30.25 in 10.0 mi North 10.4 mph - N/A   Clear
9:53 AM 37.0 °F 30.4 °F 21.9 °F 54% 30.25 in 10.0 mi NNE 9.2 mph - N/A   Clear
10:53 AM 39.9 °F 35.1 °F 23.0 °F 51% 30.25 in 10.0 mi NNE 6.9 mph - N/A   Clear
11:53 AM 42.1 °F 37.1 °F 24.1 °F 49% 30.22 in 10.0 mi NE 8.1 mph - N/A   Clear
12:53 PM 44.1 °F 42.5 °F 21.0 °F 40% 30.19 in 10.0 mi North 3.5 mph - N/A   Partly Cloudy
1:53 PM 46.9 °F - 21.0 °F 36% 30.14 in 10.0 mi North 8.1 mph - N/A   Scattered Clouds
2:53 PM 51.1 °F - 23.0 °F 33% 30.08 in 10.0 mi NNE 8.1 mph - N/A   Mostly Cloudy
3:53 PM 52.0 °F - 19.9 °F 28% 30.03 in 10.0 mi ENE 5.8 mph - N/A   Overcast
4:53 PM 53.1 °F - 19.0 °F 26% 29.99 in 10.0 mi Calm Calm - N/A   Overcast
5:44 PM 50.0 °F - 24.8 °F 37% 29.95 in 10.0 mi SE 13.8 mph 24.2 mph N/A   Overcast
5:53 PM 50.0 °F - 26.1 °F 39% 29.98 in 10.0 mi SSW 10.4 mph 19.6 mph N/A   Overcast
6:53 PM 48.9 °F - 27.0 °F 43% 29.94 in 10.0 mi Variable 5.8 mph - N/A   Overcast
7:53 PM 48.0 °F - 28.9 °F 48% 29.91 in 10.0 mi SW 4.6 mph - 0.00 in   Overcast
8:53 PM 45.0 °F 43.5 °F 36.0 °F 71% 29.89 in 10.0 mi West 3.5 mph - 0.00 in Rain Light Rain
9:53 PM 44.1 °F 39.5 °F 37.0 °F 76% 29.86 in 10.0 mi NNW 8.1 mph - 0.02 in Rain Light Rain
10:53 PM 39.9 °F 32.5 °F 36.0 °F 86% 29.82 in 10.0 mi NW 12.7 mph - 0.01 in Rain Light Rain
11:53 PM 39.0 °F 31.0 °F 35.1 °F 86% 29.78 in 10.0 mi NW 13.8 mph - 0.00 in   Overcast